FENGYUN 1C DEB

基本信息
目录编号:
37054
目录名称:
FENGYUN 1C DEB
国际标识:
1999-025EEN
轨道中心:
EARTH
物体状态:
在轨
发射日期:
1999-05-10 UTC
轨道信息
数据来源: 国际轨道数据
星历时间: 2026-09-10T00:19:39+0800
半长轴: 7204.256km
偏心率: 0.0100859
轨道倾角: 98.578°
近地点辐角: 42.486°
升交点赤经: 231.372°
平近点角: 318.407°
近地点: 753.457km
远地点: 898.781km
周期: 101.425分钟
每日圈数: 14.197735
详细信息
发射场:
TSC
轨道高度:
LEO
数据来源:
AOE Integration Group
参考系:
TEME
时间系统:
UTC
历元类型:
SGP4
2D轨道图
3D轨道图
轨道高度分析图
轨道倾角分析图
轨道综合分析图
查看轨道综合分析图